Weather History for Peru, IN

Change the Weather History Date:

Sunday, November 4, 2012

  Actual Average Record
Temperature  
Mean Temperature 35 °F -  
Max Temperature 43 °F 53 °F 77 °F (2003)
Min Temperature 28 °F 36 °F 28 °F (1998)
Degree Days  
Heating Degree Days 30    
Moisture  
Dew Point 29 °F    
Average Humidity 78    
Maximum Humidity 94    
Minimum Humidity 61    
Precipitation  
Precipitation 0.00 in - - ()
Sea Level Pressure  
Sea Level Pressure 30.20 in    
Wind  
Wind Speed 4 mph (North)    
Max Wind Speed 8 mph    
Max Gust Speed -    
Visibility 9 miles    
Events      
Averages and records for this station are not official NWS values.
T = Trace of Precipitation, MM = Missing Value Source: NWS Daily Summary

Daily Weather History Graph

Daily Weather History Graph

Search for Another Location

Airport:

Trip Planner

Search our weather history database for the weather conditions in past years. The results will help you decide how hot, cold, wet, or windy it might be!

Date:

Astronomy

Nov. 04, 2012 Rise Set
Actual Time 7:18 AM EST 5:36 PM EST
Civil Twilight 6:50 AM EST 6:05 PM EST
Nautical Twilight 6:17 AM EST 6:37 PM EST
Astronomical Twilight 5:45 AM EST 7:09 PM EST
Moon 10:14 PM EST (11/4) 12:02 PM EST (11/4)
Length of Visible Light 11h 15m
Length of Day
10h 18m
Waning Gibbous, 72% of the Moon is Illuminated
Nov 4
Waning Gibbous
Nov 6
Last Quarter
Nov 13
New
Nov 20
First Quarter
Nov 28
Full

Hourly Weather History & Observations

Time (EST) Temp. Windchill Dew Point Humidity Pressure Visibility Wind Dir Wind Speed Gust Speed Precip Events Conditions
12:55 AM 32.5 °F 27.1 °F 29.3 °F 88% 30.18 in 10.0 mi NNE 5.8 mph - N/A   Mostly Cloudy
1:55 AM 32.0 °F 26.4 °F 28.9 °F 88% 30.19 in 10.0 mi NNE 5.8 mph - N/A   Clear
1:55 AM 31.3 °F 27.9 °F 28.6 °F 90% 30.19 in 10.0 mi NNE 3.5 mph - N/A   Clear
2:55 AM 29.5 °F - 28.0 °F 94% 30.19 in 10.0 mi Calm Calm - N/A   Partly Cloudy
3:01 AM 30.2 °F - 28.4 °F 93% 30.19 in 4.0 mi Calm Calm - N/A   Partly Cloudy
3:06 AM 30.2 °F 26.7 °F 28.4 °F 93% 30.19 in 2.0 mi NNE 3.5 mph - N/A   Scattered Clouds
3:10 AM 30.2 °F 26.7 °F 28.4 °F 93% 30.19 in 2.5 mi NNE 3.5 mph - N/A   Scattered Clouds
3:12 AM 30.2 °F 25.4 °F 28.4 °F 93% 30.19 in 3.0 mi NNE 4.6 mph - N/A   Mostly Cloudy
3:15 AM 30.2 °F 26.7 °F 28.4 °F 93% 30.19 in 5.0 mi NNE 3.5 mph - N/A   Mostly Cloudy
3:55 AM 30.0 °F - 27.3 °F 90% 30.19 in 10.0 mi Calm Calm - N/A   Mostly Cloudy
4:55 AM 28.9 °F 23.9 °F 27.3 °F 94% 30.19 in 10.0 mi NE 4.6 mph - N/A   Mostly Cloudy
5:55 AM 31.6 °F 28.3 °F 28.2 °F 87% 30.21 in 10.0 mi NW 3.5 mph - N/A   Overcast
6:55 AM 30.2 °F 23.4 °F 28.4 °F 93% 30.21 in 10.0 mi NE 6.9 mph - N/A   Overcast
7:55 AM 32.2 °F - 28.0 °F 85% 30.22 in 10.0 mi Calm Calm - N/A   Overcast
8:55 AM 32.5 °F - 29.1 °F 87% 30.23 in 10.0 mi Calm Calm - N/A   Mostly Cloudy
9:55 AM 36.0 °F 31.1 °F 30.0 °F 79% 30.23 in 10.0 mi NNE 5.8 mph - N/A   Overcast
10:30 AM 37.4 °F 32.1 °F 30.2 °F 75% 30.19 in 10.0 mi ENE 6.9 mph - N/A   Overcast
10:55 AM 38.8 °F - 29.8 °F 70% 30.23 in 10.0 mi Calm Calm - N/A   Overcast
11:55 AM 39.9 °F 35.1 °F 29.5 °F 66% 30.23 in 10.0 mi NNW 6.9 mph - N/A   Overcast
11:59 AM 39.2 °F 35.9 °F 30.2 °F 70% 30.23 in 10.0 mi North 4.6 mph - N/A   Overcast
12:31 PM 41.0 °F 39.0 °F 30.2 °F 65% 30.22 in 10.0 mi Variable 3.5 mph - N/A   Overcast
12:36 PM 42.8 °F 40.1 °F 32.0 °F 66% 30.21 in 10.0 mi NW 4.6 mph - N/A   Overcast
12:55 PM 41.9 °F 39.0 °F 30.9 °F 65% 30.21 in 10.0 mi Variable 4.6 mph - N/A   Overcast
1:44 PM 42.8 °F 38.6 °F 30.2 °F 61% 30.19 in 10.0 mi NW 6.9 mph - N/A   Overcast
1:55 PM 42.1 °F 37.1 °F 29.8 °F 62% 30.20 in 10.0 mi NNW 8.1 mph - N/A   Overcast
2:55 PM 42.3 °F 38.6 °F 30.2 °F 62% 30.19 in 10.0 mi NW 5.8 mph - N/A   Overcast
3:55 PM 42.3 °F 38.6 °F 30.2 °F 62% 30.18 in 10.0 mi NNW 5.8 mph - N/A   Overcast
4:55 PM 42.1 °F 39.2 °F 30.4 °F 63% 30.18 in 10.0 mi North 4.6 mph - N/A   Overcast
5:55 PM 41.7 °F - 30.9 °F 66% 30.18 in 10.0 mi Calm Calm - N/A   Overcast
6:55 PM 40.6 °F 37.5 °F 30.4 °F 67% 30.19 in 10.0 mi NNE 4.6 mph - N/A   Overcast
7:55 PM 39.6 °F - 27.9 °F 63% 30.19 in 10.0 mi Calm Calm - N/A   Overcast
8:55 PM 37.0 °F 31.6 °F 28.6 °F 71% 30.19 in 10.0 mi North 6.9 mph - N/A   Scattered Clouds
9:55 PM 32.7 °F 26.4 °F 27.5 °F 81% 30.19 in 10.0 mi NNE 6.9 mph - N/A   Clear
10:55 PM 32.4 °F 29.1 °F 27.0 °F 80% 30.19 in 10.0 mi NNE 3.5 mph - N/A   Clear